STARLINK-5546, 55632

Orbit data source: Space-Track

STARLINK-5546, 55632 is a payload satellite owned by SpaceX/Seattle (US) in LEO that was launched on Fri, 17 Feb 2023 UTC via an FALCON 9 launch vehicle from the Air Force Western Test Range (AFWTR). Payload-class satellites include a variety of spacecraft equipped with specific instruments for various scientific and technological missions. These include communications satellites like Starlink; space stations such as the ISS; scientific satellites like the Hubble; Earth observation satellites from companies like Planet Labs, Umbra, and HawkEye 360; GPS; miniature CubeSats for education and research; and military/defense satellites.

Loading next visibility...
Identifier
55632, 2023-021E
Orbit
LEO
Country
Flag of USUS
Related business
Manufacturer
SpaceX/Seattle
Mission
Operational Commercial Communications
Bus & Motor
STARLINK, Unknown motor
Mass
305 kg wet, ~290 kg dry
Launch date (UTC)
2023-02-17 (3 years ago)
Launch vehicle
FALCON 9
Launch site
Air Force Western Test Range (AFWTR)
Object type
Payload
Rocket body
Debris
Shape & HBR
Box + 1 Pan, 10.1 m
Radar Cross Section
13.562 m², Large (>1 m²)

Expand to show TLE details & history
Last TLE update: 2 days ago

TLE from 2 days ago
0 STARLINK-5546
1 55632U 23021E   26171.40435186  .00000343  00000-0  36576-4 0  9998
2 55632  69.9994 305.4810 0003075 268.4475  91.6332 14.98333107183680
Epoch: 2026-06-20T09:42Z
TLE epoch observation values (Epoch: 2026-06-20T09:42:16.000Z)
Latitude
-0.00002°
Longitude
-108.70513°
Altitude
574.532 km
Speed
7.574 km/s
True Right ascension
20h 21m 55s
True Declination
0° 00' 00"
Sunlit
Object was in full shadow at epoch
Visualization orbit readout
Latitude
Unknown
Longitude
Unknown
Altitude
Unknown
Speed
Unknown
Apparent Right ascension
Unknown
Apparent Declination
Unknown
Sunlit
N/A
Visualization observer readout
Local Sidereal Time
21:41:19
Azimuth
Unknown
Elevation
Unknown
Doppler factor
Unknown
Orbital elements
Apogee altitude
572.131 km
Perigee altitude
567.858 km
Semi-major axis
6,948.132 km
Eccentricity
0.00031
Inclination
69.9994°
RAAN
305.481°
Arg. of periapsis
268.4475°
True anomaly
91.66842°
Mean anomaly
91.6332°
Eccentric anomaly
91.65081°
Mean motion
3.7475 °/min
Orbital period
96.06 mins
BSTAR
0.000036576
Loading maneuver chart data...
Computing Atmospheric mass density...

Documentation

Showing up to 5 results
|